SCP
0 0 0 0 1 0 -0 0 0 0 0 0 -0 -0 -0 -0 -0 -0 0 0 -0 -0 -0 -0 -0 -0 -0 -0 -0 -0 -0 -0 -0 -0 -0 -0 0 -0 -0 -0 -0 -0 -0 -0 -0 0 -0 0 -0
0 0 0 1 0 0 0 0 0 0 0 0 0 0 -0 -0 -0 0 0 -0 -0 -0 -0 -0 -0 -0 -0 -0 -0 -0 -0 -0 -0 -0 -0 0 0 -0 -0 -0 -0 -0 -0 -0 -0 0 -0 0 -0
0 0 0 0 0 -0 0 0 0 0 0 0 0 -0 0 -0 0 0 0 -0 -0 -0 -0 -0 -0 -0 -0 -0 -0 -0 -0 -0 -0 0 0 0 -0 -0 -0 -0 -0 -0 -0 -0 -0 -0 -0 -0 -0
0 0 1 0 0 0 0 0 0 0 0 0 0 0 0 -0 -0 -0 0 -0 -0 -0 -0 -1 -0 -0 -0 -0 -0 -0 -0 -0 0 -0 -0 -0 -0 0 0 -0 -0 -0 -0 -0 -0 -0 -0 -0 -0
0 0 0 0 0 0 0 0 0 0 0 0 0 0 0 -0 -0 0 0 0 -0 -0 -0 -0 -0 -0 -0 -0 -0 -0 -0 -0 0 -0 -0 -0 -0 -0 -0 -0 -0 -0 -0 -0 -0 -0 -0 0 0
0 0 -0 -0 0 0 0 0 0 0 0 0 0 0 0 0 0 0 0 0 0 0 -0 -0 -0 -0 -0 -0 -0 -0 -0 -0 -0 0 -0 -0 -0 -0 -0 -0 -0 -0 -0 -0 -0 0 0 0 0
0 0 -0 -0 0 0 0 0 0 0 0 0 0 0 0 0 0 0 0 0 0 0 0 -0 -0 -0 -0 -0 -0 -0 -0 -0 -0 -0 0 -0 -0 -0 0 -0 -0 -0 -0 -0 -0 -0 -0 -0 -0
0 0 0 -0 -0 -0 0 0 0 0 0 0 0 0 0 0 0 0 0 0 0 0 0 -0 -0 -0 -0 -0 -0 -0 -0 -0 -0 0 0 0 0 -0 -0 -0 -0 -0 -0 -0 -0 -0 -0 -0 0
0 0 -0 0 -0 -0 0 0 0 0 0 0 0 0 0 0 0 0 0 0 0 0 0 -0 -0 0 0 -0 -0 -0 -0 -0 0 0 0 0 -0 0 0 -0 0 -0 -0 -0 -0 -0 -0 -0 0
-0 0 -0 -0 -0 0 0 0 0 0 0 0 0 0 0 0 0 0 0 0 0 0 0 0 -0 -0 0 0 -0 -0 -0 0 0 0 0 -0 0 0 0 0 0 0 -0 0 -0 -0 -0 0 0
-0 0 0 0 -0 0 0 -0 0 0 0 0 0 0 0 0 0 0 0 0 0 0 0 0 0 -0 0 0 0 0 -0 -0 0 -0 0 0 0 0 -0 0 -0 0 -0 -0 -0 -0 -0 -0 0
0 -0 -0 -0 0 0 -0 0 0 0 0 0 0 0 0 0 0 0 0 0 0 0 0 0 0 0 0 0 0 0 0 0 0 -0 0 0 0 0 0 0 -0 0 0 0 0 0 0 0 0
-0 0 -0 0 0 -0 -0 -0 -0 0 0 0 0 -0 0 0 0 0 0 0 0 0 0 0 0 0 0 0 0 0 0 0 0 -0 -0 0 0 0 0 0 0 0 0 0 0 0 0 0 0
-0 -0 -0 -0 -0 -0 -0 -0 -0 0 0 0 -0 -0 0 0 0 0 0 0 0 0 0 0 0 0 0 0 0 0 0 0 -0 -0 0 -0 0 0 0 0 0 0 0 0 0 0 0 0 0
-0 0 0 0 0 0 -0 -0 -0 -0 -0 -0 -0 -0 -0 0 0 0 0 0 0 0 0 0 0 0 0 0 0 0 0 0 0 0 0 0 0 -0 0 0 0 0 0 0 0 0 0 0 -0
0 0 0 0 0 0 -0 0 0 0 -0 -0 -0 -0 -0 -0 -0 0 0 0 0 0 0 0 0 0 0 0 0 0 0 0 0 0 -0 0 0 -0 0 0 0 0 0 0 0 0 0 -0 -0
0 -0 0 -0 0 0 0 0 0 0 0 -0 -0 -0 -0 0 -0 0 0 0 0 0 0 0 0 1 1 0 0 0 0 0 0 0 -0 -0 0 0 -0 0 0 0 0 0 0 0 0 0 0
0 0 0 -0 0 0 0 0 0 -0 0 0 -0 -0 -0 0 -0 0 0 0 0 0 0 1 1 1 1 0 0 0 0 0 0 0 0 -0 0 0 0 0 0 0 0 0 0 0 0 0 0
0 0 -0 -0 0 0 0 0 0 0 0 0 0 -0 -0 -0 -0 0 0 0 0 0 0 1 2 2 2 1 0 0 0 0 0 0 0 0 -0 -0 0 0 0 0 -0 0 0 0 0 0 0
-0 -0 0 -0 0 0 -0 0 -0 -0 -0 0 0 -0 -0 -0 0 0 0 0 0 1 1 2 2 3 4 2 0 0 0 0 0 0 0 0 0 0 0 0 -0 0 0 0 0 0 0 0 0
0 0 -0 -0 0 0 0 -0 -0 -0 -0 -0 -0 0 -0 -0 0 0 0 1 1 1 1 1 1 2 1 0 -0 0 0 0 0 0 0 0 0 0 0 0 0 0 0 0 0 0 0 0 0
0 0 0 0 -0 -0 0 -0 0 0 0 -0 0 0 0 0 0 0 0 1 1 2 1 0 0 0 1 0 -0 0 0 0 0 0 0 0 0 0 0 0 0 0 0 0 0 0 0 0 0
0 0 0 0 0 -0 0 0 0 0 0 0 0 0 -0 0 0 0 0 0 1 1 1 1 0 0 1 -1 -0 0 0 0 0 0 0 0 0 0 0 0 0 0 0 0 0 0 0 0 0
0 0 0 0 0 0 0 0 -0 0 0 0 0 0 -0 0 0 -0 0 1 1 1 0 0 -0 -0 -0 -0 -0 0 0 0 0 0 1 0 0 0 0 0 0 0 0 0 0 0 0 0 0
0 0 0 0 0 0 0 0 0 0 0 0 0 0 0 0 0 0 0 2 1 0 0 0 0 0 0 -0 -0 0 0 0 0 0 0 0 0 0 0 0 0 0 0 0 0 0 0 0 0
0 -0 -0 0 0 0 0 0 0 0 0 0 0 0 0 0 0 0 0 1 1 0 0 0 1 1 1 -0 -0 0 0 0 0 0 0 0 0 0 0 0 0 0 0 0 0 0 0 0 0
0 0 0 0 0 0 0 0 0 0 0 0 0 0 0 0 0 0 0 1 0 0 0 1 0 0 0 0 -0 -0 0 0 0 0 0 0 -0 0 0 0 0 0 0 0 0 0 0 0 0
0 0 0 0 -0 0 0 0 0 0 -0 0 0 0 0 0 0 0 1 0 0 0 1 1 0 -0 0 -0 -0 -0 0 0 0 0 0 0 -0 -0 0 -0 -0 0 0 0 0 0 0 0 0
0 0 0 0 0 0 0 0 0 0 0 0 0 0 0 0 0 0 0 0 -0 0 1 0 0 -0 -0 -0 -0 -0 -0 -0 0 0 0 0 0 -0 -0 0 0 0 0 0 0 0 0 0 0
0 0 0 0 0 0 0 0 0 0 0 0 0 0 0 0 0 0 0 0 0 0 0 0 0 0 -0 -0 -0 -0 -0 -0 0 0 0 0 0 0 -0 0 0 0 0 0 0 0 0 0 0
Wind_Speed_500mb
13 7 4 8 11 7 23 15 11 14 10 6 9 13 20 18 18 10 31 24 32 30 29 32 33 30 27 23 24 24 23 21 21 20 18 16 11 11 12 13 14 11 9 13 16 18 15 11 16
13 7 4 12 3 22 21 17 16 16 18 17 13 7 9 16 17 32 31 32 36 29 28 28 32 31 28 24 22 22 21 20 20 17 16 16 14 13 11 11 11 11 12 13 14 15 11 12 20
14 5 9 11 22 27 23 19 19 18 8 1 7 16 9 15 26 28 27 40 36 31 28 30 28 27 27 24 23 22 19 18 16 17 17 11 13 12 13 11 10 11 11 10 11 10 12 19 26
5 3 13 8 33 24 25 18 14 12 14 11 13 18 20 19 18 16 36 40 36 31 26 25 26 26 24 23 23 21 17 16 15 16 14 10 12 10 11 10 9 10 10 12 11 8 17 20 25
2 11 7 21 29 24 20 18 10 11 11 9 6 14 21 12 17 27 35 33 31 30 25 25 24 23 21 21 22 22 19 17 16 15 14 13 15 8 9 10 12 12 11 12 11 10 17 20 22
8 12 13 23 27 17 14 11 8 12 9 10 18 21 15 15 26 31 33 30 26 27 24 24 25 21 20 19 21 22 20 18 16 16 14 15 15 10 8 10 10 9 13 11 13 15 13 21 28
12 8 14 17 18 17 11 7 7 15 10 12 14 12 18 23 27 33 32 29 28 26 25 25 24 23 21 19 18 19 19 19 18 17 16 14 13 14 14 14 15 15 14 15 13 18 18 20 26
11 10 3 5 13 20 12 10 9 5 13 15 8 7 23 30 33 31 30 28 26 25 24 21 22 22 21 17 19 18 20 20 18 18 17 18 18 18 18 18 15 17 18 16 17 18 19 23 23
9 8 6 12 7 13 12 7 10 6 15 9 10 3 19 36 35 30 28 26 27 26 26 25 21 20 19 19 17 20 20 17 19 17 19 20 17 20 19 18 23 20 20 20 19 21 20 22 25
14 9 10 9 8 3 12 11 16 10 14 13 16 8 26 37 35 32 29 29 30 28 27 25 25 23 20 17 20 19 17 15 16 18 21 17 20 26 21 23 25 23 22 23 24 23 24 23 17
2 11 15 10 6 7 10 18 15 12 13 12 21 23 36 36 36 34 30 27 29 28 25 26 26 26 23 21 18 18 22 20 16 19 24 21 27 25 21 20 19 19 21 16 20 21 19 21 21
17 8 13 16 13 11 13 15 19 21 10 6 18 34 42 39 37 36 32 28 28 28 26 25 26 25 25 22 21 21 24 25 21 25 30 28 30 27 26 26 23 30 30 25 21 21 25 26 26
22 23 19 16 17 20 18 21 24 19 17 11 27 38 43 40 36 35 30 27 28 29 28 28 25 23 21 21 21 23 27 29 27 28 20 32 30 31 26 33 35 32 29 29 24 23 23 23 23
27 25 35 23 20 15 24 21 20 13 23 24 34 38 40 41 40 36 35 31 29 28 26 26 25 23 23 21 21 21 24 25 29 37 29 30 36 40 33 30 33 31 30 30 24 26 24 24 23
21 30 30 5 10 3 20 22 27 27 24 29 37 40 41 40 41 42 38 36 31 25 23 25 25 23 24 22 20 21 22 27 29 39 42 40 42 48 48 38 32 28 28 28 29 29 24 22 23
21 19 27 18 1 7 14 11 7 14 28 31 35 39 43 45 44 39 38 35 31 28 26 26 25 27 25 22 21 20 20 25 29 32 35 31 38 44 53 47 43 34 29 30 33 29 28 22 26
23 27 23 13 0 2 17 22 14 7 22 30 32 37 41 42 46 42 38 37 32 32 30 30 29 26 27 23 22 20 21 24 23 25 22 22 29 37 55 56 43 38 29 29 26 21 26 27 27
32 23 21 21 2 15 19 24 24 18 18 27 30 35 41 47 52 46 41 38 36 36 35 28 25 26 28 24 26 21 23 23 24 16 16 13 17 27 47 55 52 43 40 35 27 27 28 29 29
19 22 32 28 9 22 29 25 24 23 23 29 30 34 44 52 46 40 39 39 37 34 28 27 29 27 21 26 24 21 16 17 18 18 15 7 11 23 36 40 45 45 44 33 26 23 27 30 28
32 33 39 31 18 20 25 24 28 27 25 26 33 35 42 43 42 42 43 44 44 35 32 39 27 22 16 24 57 33 25 18 18 17 16 8 10 24 35 38 39 39 40 38 35 35 33 28 35
34 36 34 34 23 21 28 33 31 22 14 19 24 25 37 44 46 50 45 45 45 43 42 33 23 22 29 26 28 32 26 27 22 23 19 13 9 19 28 30 33 34 34 36 35 33 32 30 26
35 28 28 34 34 30 20 25 15 14 18 11 6 18 30 42 47 51 47 43 43 41 34 16 16 17 19 34 33 36 28 21 17 19 19 16 15 14 19 26 29 33 32 34 32 30 28 29 25
31 13 17 24 28 32 32 19 28 8 18 15 10 8 15 34 38 46 50 39 43 43 49 40 22 37 46 34 41 49 37 28 24 19 26 20 20 18 17 19 20 22 23 24 27 27 30 28 30
13 17 21 19 25 29 40 25 28 22 5 13 5 17 20 13 22 35 36 45 52 55 64 53 27 41 37 43 34 36 42 30 24 22 30 23 21 18 19 15 14 14 16 21 23 27 27 33 33
20 25 19 22 22 28 11 15 26 24 11 15 19 25 19 2 18 31 41 49 57 62 59 11 7 33 30 21 19 18 24 23 22 21 24 26 23 21 15 17 15 13 18 17 15 19 22 22 24
35 32 22 25 24 25 15 17 23 4 9 12 14 14 7 11 21 30 40 44 49 54 56 22 21 45 24 15 15 16 23 18 12 16 20 21 19 16 15 18 20 19 12 11 11 12 14 18 18
26 20 29 25 19 19 17 11 14 27 20 24 12 5 12 18 24 29 34 37 42 47 52 25 25 49 20 18 14 16 19 15 9 13 12 14 20 19 21 14 11 8 9 9 9 9 12 11 16
27 15 20 20 31 20 20 15 19 19 17 9 5 9 16 21 28 31 32 32 36 44 40 26 32 41 25 9 15 12 13 7 3 6 5 11 17 21 16 16 11 9 8 5 8 6 10 11 12
23 26 23 22 10 19 18 14 9 8 14 16 9 11 17 23 26 29 29 30 25 20 22 16 24 35 20 13 13 13 14 7 9 15 14 16 17 17 15 16 11 8 7 7 7 9 6 5 9
18 31 40 23 28 24 19 21 15 10 9 9 8 10 15 20 22 27 30 29 20 15 15 27 34 30 22 17 14 14 14 15 18 17 18 17 17 17 20 13 10 10 7 3 4 6 4 3 4
Wind_Direction_500mb
164 157 240 276 234 87 60 79 110 111 110 66 67 11 47 26 0 48 141 144 149 149 160 158 165 165 163 163 153 154 156 155 157 165 170 167 166 149 137 137 140 153 150 136 134 138 140 139 138
165 173 298 263 26 69 66 64 72 60 93 101 90 112 57 72 59 120 140 144 145 149 156 164 162 166 166 166 159 157 158 156 158 165 168 165 157 149 136 150 147 134 139 142 134 139 142 142 136
161 170 255 292 54 57 72 73 91 97 102 179 110 62 46 69 118 130 154 148 149 149 154 177 165 168 169 168 167 166 166 162 168 163 165 168 161 159 145 149 149 144 149 150 144 145 146 144 139
148 298 244 49 78 63 75 83 99 118 87 81 99 89 92 102 123 141 148 150 152 150 158 176 163 168 172 172 173 173 175 171 175 172 171 177 172 159 152 151 161 167 146 155 149 160 150 150 149
231 254 150 84 77 77 74 76 48 75 71 71 110 113 105 123 134 142 149 151 152 152 165 174 167 165 175 178 178 179 185 188 186 190 186 173 166 151 158 156 165 175 168 170 180 175 162 159 160
237 266 81 78 83 85 82 91 51 64 79 90 121 111 101 133 135 147 152 150 154 155 164 190 176 174 178 186 187 188 192 198 199 205 206 196 198 209 205 212 187 177 180 174 194 175 176 173 168
293 284 49 66 89 100 94 114 67 79 99 104 131 107 122 137 145 146 152 152 156 160 163 191 180 184 187 191 198 201 202 205 212 213 221 226 216 215 213 216 204 200 194 190 182 184 190 179 172
284 279 113 40 53 94 128 149 112 101 85 127 165 118 157 156 151 152 153 156 157 165 171 179 184 188 195 204 204 208 210 211 217 223 220 228 232 223 224 222 217 206 204 200 196 192 194 190 190
281 244 19 37 348 84 138 176 155 138 137 162 163 102 129 159 154 158 160 162 166 175 177 179 185 191 195 196 219 208 214 222 226 235 229 228 230 246 242 225 224 214 211 208 207 205 199 200 204
260 291 11 3 356 311 170 213 165 190 170 175 163 149 154 159 166 172 175 172 174 181 184 183 184 190 195 191 209 206 215 216 217 230 244 223 225 235 209 231 228 215 210 209 211 213 213 207 213
246 318 347 337 287 287 205 211 198 218 192 194 182 172 168 174 180 184 184 177 178 178 183 187 188 189 191 197 204 212 212 201 215 271 241 239 227 230 233 227 240 224 221 213 225 224 212 213 207
282 279 305 316 350 263 247 235 213 220 46 175 174 169 172 181 189 194 193 182 178 180 182 188 191 191 195 204 205 210 214 212 219 323 247 241 237 228 222 227 223 224 212 194 210 212 220 215 217
253 290 304 304 313 264 249 240 241 231 227 189 168 170 175 183 192 199 194 187 182 188 189 189 198 196 196 207 209 213 228 223 243 284 309 261 241 241 219 232 219 220 221 208 201 214 216 214 215
317 300 292 298 299 253 230 234 227 220 206 190 175 179 182 187 192 196 197 195 192 189 196 200 206 204 205 201 209 221 234 238 254 268 278 269 249 234 223 231 234 235 235 226 196 215 216 215 219
278 298 296 217 313 223 223 237 232 244 196 198 189 185 189 195 196 199 200 201 196 196 199 206 217 221 222 218 222 232 235 257 263 274 285 267 254 245 238 229 233 229 236 220 216 215 220 228 240
255 264 266 113 339 123 226 306 113 213 197 211 199 197 197 200 202 203 201 204 195 193 207 213 220 232 236 237 243 237 252 273 280 279 285 280 247 240 228 231 227 230 233 229 229 232 228 238 242
229 263 242 277 22 218 229 312 93 194 204 224 213 212 205 208 209 205 201 205 194 202 207 219 229 239 245 246 251 266 274 286 280 283 303 291 250 239 223 223 222 224 228 231 232 240 243 243 251
250 230 251 262 138 241 260 265 286 186 229 236 225 216 211 214 217 206 197 203 202 205 214 221 230 231 249 248 255 259 278 287 289 280 299 297 249 237 222 217 220 226 230 240 228 236 244 250 253
305 271 270 272 252 281 281 288 290 294 246 246 236 216 217 220 216 209 197 201 206 209 205 205 222 236 255 255 268 273 281 273 275 281 298 290 241 206 201 214 218 229 232 221 228 247 258 250 252
253 260 263 265 285 261 273 289 293 288 276 258 246 221 230 226 213 205 197 197 205 205 197 210 213 214 285 249 269 264 281 290 268 257 283 280 210 208 208 217 233 229 222 224 245 257 251 249 250
245 257 270 270 258 264 279 276 262 268 269 278 259 239 225 228 218 209 199 198 197 193 210 213 216 239 295 249 248 257 275 288 283 259 261 252 227 202 208 213 215 220 220 235 248 249 250 250 252
251 249 256 261 258 256 214 273 269 259 302 279 267 222 232 228 223 212 203 200 189 176 199 159 330 338 299 262 256 249 257 259 262 252 248 231 227 212 211 220 225 234 241 242 248 244 246 251 254
254 276 275 280 262 254 242 257 273 205 270 292 60 31 280 236 220 208 205 195 174 168 170 156 41 337 294 255 251 247 249 257 265 245 239 228 229 209 213 217 219 226 231 241 251 254 258 252 248
234 245 243 256 250 236 244 241 264 265 286 319 294 325 311 305 211 206 197 177 170 175 179 181 2 226 272 246 248 244 240 244 253 238 238 238 227 219 208 210 220 239 252 264 259 256 249 255 252
218 241 240 221 220 243 213 227 263 307 282 284 313 324 352 159 166 180 170 169 176 185 191 249 307 226 254 276 232 213 221 250 249 232 230 233 226 222 215 218 230 266 279 259 249 255 251 255 257
211 236 249 254 250 236 169 246 259 20 274 250 295 343 30 137 144 161 172 177 187 192 198 226 255 211 234 255 223 222 233 251 242 241 240 238 237 226 240 261 256 277 265 252 253 257 255 257 260
218 232 253 271 254 278 269 203 247 244 256 251 277 54 101 127 140 150 164 179 191 197 202 242 215 206 245 258 227 230 215 213 205 262 259 228 214 206 223 250 256 254 239 227 243 254 259 247 266
256 230 211 229 262 251 253 246 269 287 277 336 132 115 127 134 139 146 154 175 187 199 207 241 212 213 255 231 212 200 174 152 231 227 185 179 192 199 222 234 223 208 199 225 209 265 281 271 285
196 227 240 289 291 277 263 261 89 284 337 24 54 101 126 129 140 151 157 167 169 193 220 230 205 216 237 188 172 161 148 127 149 147 142 154 161 162 157 170 190 196 200 216 227 227 251 279 283
236 222 215 228 214 240 284 282 16 34 17 39 86 120 128 137 139 142 160 163 172 179 175 197 206 202 186 181 159 159 148 133 146 158 153 157 154 163 169 168 162 155 168 186 197 180 173 192 248
Wind_Speed_850mb
13 7 4 8 11 7 23 15 11 14 10 6 9 13 20 18 18 10 31 24 32 30 29 32 33 30 27 23 24 24 23 21 21 20 18 16 11 11 12 13 14 11 9 13 16 18 15 11 16
13 7 4 12 3 22 21 17 16 16 18 17 13 7 9 16 17 32 31 32 36 29 28 28 32 31 28 24 22 22 21 20 20 17 16 16 14 13 11 11 11 11 12 13 14 15 11 12 20
14 5 9 11 22 27 23 19 19 18 8 1 7 16 9 15 26 28 27 40 36 31 28 30 28 27 27 24 23 22 19 18 16 17 17 11 13 12 13 11 10 11 11 10 11 10 12 19 26
5 3 13 8 33 24 25 18 14 12 14 11 13 18 20 19 18 16 36 40 36 31 26 25 26 26 24 23 23 21 17 16 15 16 14 10 12 10 11 10 9 10 10 12 11 8 17 20 25
2 11 7 21 29 24 20 18 10 11 11 9 6 14 21 12 17 27 35 33 31 30 25 25 24 23 21 21 22 22 19 17 16 15 14 13 15 8 9 10 12 12 11 12 11 10 17 20 22
8 12 13 23 27 17 14 11 8 12 9 10 18 21 15 15 26 31 33 30 26 27 24 24 25 21 20 19 21 22 20 18 16 16 14 15 15 10 8 10 10 9 13 11 13 15 13 21 28
12 8 14 17 18 17 11 7 7 15 10 12 14 12 18 23 27 33 32 29 28 26 25 25 24 23 21 19 18 19 19 19 18 17 16 14 13 14 14 14 15 15 14 15 13 18 18 20 26
11 10 3 5 13 20 12 10 9 5 13 15 8 7 23 30 33 31 30 28 26 25 24 21 22 22 21 17 19 18 20 20 18 18 17 18 18 18 18 18 15 17 18 16 17 18 19 23 23
9 8 6 12 7 13 12 7 10 6 15 9 10 3 19 36 35 30 28 26 27 26 26 25 21 20 19 19 17 20 20 17 19 17 19 20 17 20 19 18 23 20 20 20 19 21 20 22 25
14 9 10 9 8 3 12 11 16 10 14 13 16 8 26 37 35 32 29 29 30 28 27 25 25 23 20 17 20 19 17 15 16 18 21 17 20 26 21 23 25 23 22 23 24 23 24 23 17
2 11 15 10 6 7 10 18 15 12 13 12 21 23 36 36 36 34 30 27 29 28 25 26 26 26 23 21 18 18 22 20 16 19 24 21 27 25 21 20 19 19 21 16 20 21 19 21 21
17 8 13 16 13 11 13 15 19 21 10 6 18 34 42 39 37 36 32 28 28 28 26 25 26 25 25 22 21 21 24 25 21 25 30 28 30 27 26 26 23 30 30 25 21 21 25 26 26
22 23 19 16 17 20 18 21 24 19 17 11 27 38 43 40 36 35 30 27 28 29 28 28 25 23 21 21 21 23 27 29 27 28 20 32 30 31 26 33 35 32 29 29 24 23 23 23 23
27 25 35 23 20 15 24 21 20 13 23 24 34 38 40 41 40 36 35 31 29 28 26 26 25 23 23 21 21 21 24 25 29 37 29 30 36 40 33 30 33 31 30 30 24 26 24 24 23
21 30 30 5 10 3 20 22 27 27 24 29 37 40 41 40 41 42 38 36 31 25 23 25 25 23 24 22 20 21 22 27 29 39 42 40 42 48 48 38 32 28 28 28 29 29 24 22 23
21 19 27 18 1 7 14 11 7 14 28 31 35 39 43 45 44 39 38 35 31 28 26 26 25 27 25 22 21 20 20 25 29 32 35 31 38 44 53 47 43 34 29 30 33 29 28 22 26
23 27 23 13 0 2 17 22 14 7 22 30 32 37 41 42 46 42 38 37 32 32 30 30 29 26 27 23 22 20 21 24 23 25 22 22 29 37 55 56 43 38 29 29 26 21 26 27 27
32 23 21 21 2 15 19 24 24 18 18 27 30 35 41 47 52 46 41 38 36 36 35 28 25 26 28 24 26 21 23 23 24 16 16 13 17 27 47 55 52 43 40 35 27 27 28 29 29
19 22 32 28 9 22 29 25 24 23 23 29 30 34 44 52 46 40 39 39 37 34 28 27 29 27 21 26 24 21 16 17 18 18 15 7 11 23 36 40 45 45 44 33 26 23 27 30 28
32 33 39 31 18 20 25 24 28 27 25 26 33 35 42 43 42 42 43 44 44 35 32 39 27 22 16 24 57 33 25 18 18 17 16 8 10 24 35 38 39 39 40 38 35 35 33 28 35
34 36 34 34 23 21 28 33 31 22 14 19 24 25 37 44 46 50 45 45 45 43 42 33 23 22 29 26 28 32 26 27 22 23 19 13 9 19 28 30 33 34 34 36 35 33 32 30 26
35 28 28 34 34 30 20 25 15 14 18 11 6 18 30 42 47 51 47 43 43 41 34 16 16 17 19 34 33 36 28 21 17 19 19 16 15 14 19 26 29 33 32 34 32 30 28 29 25
31 13 17 24 28 32 32 19 28 8 18 15 10 8 15 34 38 46 50 39 43 43 49 40 22 37 46 34 41 49 37 28 24 19 26 20 20 18 17 19 20 22 23 24 27 27 30 28 30
13 17 21 19 25 29 40 25 28 22 5 13 5 17 20 13 22 35 36 45 52 55 64 53 27 41 37 43 34 36 42 30 24 22 30 23 21 18 19 15 14 14 16 21 23 27 27 33 33
20 25 19 22 22 28 11 15 26 24 11 15 19 25 19 2 18 31 41 49 57 62 59 11 7 33 30 21 19 18 24 23 22 21 24 26 23 21 15 17 15 13 18 17 15 19 22 22 24
35 32 22 25 24 25 15 17 23 4 9 12 14 14 7 11 21 30 40 44 49 54 56 22 21 45 24 15 15 16 23 18 12 16 20 21 19 16 15 18 20 19 12 11 11 12 14 18 18
26 20 29 25 19 19 17 11 14 27 20 24 12 5 12 18 24 29 34 37 42 47 52 25 25 49 20 18 14 16 19 15 9 13 12 14 20 19 21 14 11 8 9 9 9 9 12 11 16
27 15 20 20 31 20 20 15 19 19 17 9 5 9 16 21 28 31 32 32 36 44 40 26 32 41 25 9 15 12 13 7 3 6 5 11 17 21 16 16 11 9 8 5 8 6 10 11 12
23 26 23 22 10 19 18 14 9 8 14 16 9 11 17 23 26 29 29 30 25 20 22 16 24 35 20 13 13 13 14 7 9 15 14 16 17 17 15 16 11 8 7 7 7 9 6 5 9
18 31 40 23 28 24 19 21 15 10 9 9 8 10 15 20 22 27 30 29 20 15 15 27 34 30 22 17 14 14 14 15 18 17 18 17 17 17 20 13 10 10 7 3 4 6 4 3 4
Wind_Direction_850mb
164 157 240 276 234 87 60 79 110 111 110 66 67 11 47 26 0 48 141 144 149 149 160 158 165 165 163 163 153 154 156 155 157 165 170 167 166 149 137 137 140 153 150 136 134 138 140 139 138
165 173 298 263 26 69 66 64 72 60 93 101 90 112 57 72 59 120 140 144 145 149 156 164 162 166 166 166 159 157 158 156 158 165 168 165 157 149 136 150 147 134 139 142 134 139 142 142 136
161 170 255 292 54 57 72 73 91 97 102 179 110 62 46 69 118 130 154 148 149 149 154 177 165 168 169 168 167 166 166 162 168 163 165 168 161 159 145 149 149 144 149 150 144 145 146 144 139
148 298 244 49 78 63 75 83 99 118 87 81 99 89 92 102 123 141 148 150 152 150 158 176 163 168 172 172 173 173 175 171 175 172 171 177 172 159 152 151 161 167 146 155 149 160 150 150 149
231 254 150 84 77 77 74 76 48 75 71 71 110 113 105 123 134 142 149 151 152 152 165 174 167 165 175 178 178 179 185 188 186 190 186 173 166 151 158 156 165 175 168 170 180 175 162 159 160
237 266 81 78 83 85 82 91 51 64 79 90 121 111 101 133 135 147 152 150 154 155 164 190 176 174 178 186 187 188 192 198 199 205 206 196 198 209 205 212 187 177 180 174 194 175 176 173 168
293 284 49 66 89 100 94 114 67 79 99 104 131 107 122 137 145 146 152 152 156 160 163 191 180 184 187 191 198 201 202 205 212 213 221 226 216 215 213 216 204 200 194 190 182 184 190 179 172
284 279 113 40 53 94 128 149 112 101 85 127 165 118 157 156 151 152 153 156 157 165 171 179 184 188 195 204 204 208 210 211 217 223 220 228 232 223 224 222 217 206 204 200 196 192 194 190 190
281 244 19 37 348 84 138 176 155 138 137 162 163 102 129 159 154 158 160 162 166 175 177 179 185 191 195 196 219 208 214 222 226 235 229 228 230 246 242 225 224 214 211 208 207 205 199 200 204
260 291 11 3 356 311 170 213 165 190 170 175 163 149 154 159 166 172 175 172 174 181 184 183 184 190 195 191 209 206 215 216 217 230 244 223 225 235 209 231 228 215 210 209 211 213 213 207 213
246 318 347 337 287 287 205 211 198 218 192 194 182 172 168 174 180 184 184 177 178 178 183 187 188 189 191 197 204 212 212 201 215 271 241 239 227 230 233 227 240 224 221 213 225 224 212 213 207
282 279 305 316 350 263 247 235 213 220 46 175 174 169 172 181 189 194 193 182 178 180 182 188 191 191 195 204 205 210 214 212 219 323 247 241 237 228 222 227 223 224 212 194 210 212 220 215 217
253 290 304 304 313 264 249 240 241 231 227 189 168 170 175 183 192 199 194 187 182 188 189 189 198 196 196 207 209 213 228 223 243 284 309 261 241 241 219 232 219 220 221 208 201 214 216 214 215
317 300 292 298 299 253 230 234 227 220 206 190 175 179 182 187 192 196 197 195 192 189 196 200 206 204 205 201 209 221 234 238 254 268 278 269 249 234 223 231 234 235 235 226 196 215 216 215 219
278 298 296 217 313 223 223 237 232 244 196 198 189 185 189 195 196 199 200 201 196 196 199 206 217 221 222 218 222 232 235 257 263 274 285 267 254 245 238 229 233 229 236 220 216 215 220 228 240
255 264 266 113 339 123 226 306 113 213 197 211 199 197 197 200 202 203 201 204 195 193 207 213 220 232 236 237 243 237 252 273 280 279 285 280 247 240 228 231 227 230 233 229 229 232 228 238 242
229 263 242 277 22 218 229 312 93 194 204 224 213 212 205 208 209 205 201 205 194 202 207 219 229 239 245 246 251 266 274 286 280 283 303 291 250 239 223 223 222 224 228 231 232 240 243 243 251
250 230 251 262 138 241 260 265 286 186 229 236 225 216 211 214 217 206 197 203 202 205 214 221 230 231 249 248 255 259 278 287 289 280 299 297 249 237 222 217 220 226 230 240 228 236 244 250 253
305 271 270 272 252 281 281 288 290 294 246 246 236 216 217 220 216 209 197 201 206 209 205 205 222 236 255 255 268 273 281 273 275 281 298 290 241 206 201 214 218 229 232 221 228 247 258 250 252
253 260 263 265 285 261 273 289 293 288 276 258 246 221 230 226 213 205 197 197 205 205 197 210 213 214 285 249 269 264 281 290 268 257 283 280 210 208 208 217 233 229 222 224 245 257 251 249 250
245 257 270 270 258 264 279 276 262 268 269 278 259 239 225 228 218 209 199 198 197 193 210 213 216 239 295 249 248 257 275 288 283 259 261 252 227 202 208 213 215 220 220 235 248 249 250 250 252
251 249 256 261 258 256 214 273 269 259 302 279 267 222 232 228 223 212 203 200 189 176 199 159 330 338 299 262 256 249 257 259 262 252 248 231 227 212 211 220 225 234 241 242 248 244 246 251 254
254 276 275 280 262 254 242 257 273 205 270 292 60 31 280 236 220 208 205 195 174 168 170 156 41 337 294 255 251 247 249 257 265 245 239 228 229 209 213 217 219 226 231 241 251 254 258 252 248
234 245 243 256 250 236 244 241 264 265 286 319 294 325 311 305 211 206 197 177 170 175 179 181 2 226 272 246 248 244 240 244 253 238 238 238 227 219 208 210 220 239 252 264 259 256 249 255 252
218 241 240 221 220 243 213 227 263 307 282 284 313 324 352 159 166 180 170 169 176 185 191 249 307 226 254 276 232 213 221 250 249 232 230 233 226 222 215 218 230 266 279 259 249 255 251 255 257
211 236 249 254 250 236 169 246 259 20 274 250 295 343 30 137 144 161 172 177 187 192 198 226 255 211 234 255 223 222 233 251 242 241 240 238 237 226 240 261 256 277 265 252 253 257 255 257 260
218 232 253 271 254 278 269 203 247 244 256 251 277 54 101 127 140 150 164 179 191 197 202 242 215 206 245 258 227 230 215 213 205 262 259 228 214 206 223 250 256 254 239 227 243 254 259 247 266
256 230 211 229 262 251 253 246 269 287 277 336 132 115 127 134 139 146 154 175 187 199 207 241 212 213 255 231 212 200 174 152 231 227 185 179 192 199 222 234 223 208 199 225 209 265 281 271 285
196 227 240 289 291 277 263 261 89 284 337 24 54 101 126 129 140 151 157 167 169 193 220 230 205 216 237 188 172 161 148 127 149 147 142 154 161 162 157 170 190 196 200 216 227 227 251 279 283
236 222 215 228 214 240 284 282 16 34 17 39 86 120 128 137 139 142 160 163 172 179 175 197 206 202 186 181 159 159 148 133 146 158 153 157 154 163 169 168 162 155 168 186 197 180 173 192 248